Wind_Speed
23 23 23 22 23 23 23 23 22 23 22 21 21 21 20 20 19 18 18 17 17 17 17 16 16 16 15 15 15 15 15 15 15 15 16 16 17 17 17 18 18 19 19
24 23 23 23 23 23 23 23 23 24 24 23 23 23 22 22 21 19 19 20 20 19 19 18 18 18 17 17 17 16 16 17 16 17 17 18 18 19 20 20 20 21 22
25 24 24 24 25 24 24 23 23 24 24 24 24 25 25 25 24 22 21 21 21 21 21 21 20 20 19 19 18 18 18 18 18 18 19 20 20 21 22 23 23 24 25
25 25 25 26 26 26 25 25 24 25 25 25 25 26 27 27 25 24 23 23 23 23 23 23 23 22 21 21 20 19 20 20 20 21 21 22 23 24 24 25 26 27 28
27 27 27 27 27 27 27 28 27 26 26 26 27 27 28 29 28 26 25 25 24 25 25 24 23 23 22 22 22 22 22 22 23 23 24 25 25 26 27 28 29 30 31
28 29 29 28 28 28 28 30 30 29 29 28 28 29 28 28 28 27 26 26 25 25 25 25 24 24 24 23 23 24 24 25 25 26 26 27 27 28 29 30 31 32 32
31 30 30 30 29 29 29 30 31 31 30 29 30 30 30 29 29 28 27 27 27 27 28 27 26 26 25 25 25 25 27 27 28 28 28 29 30 31 31 32 32 32 33
31 31 31 30 30 31 31 31 31 31 31 31 31 30 30 29 29 29 29 28 28 28 29 28 27 27 27 27 27 28 28 29 30 30 31 31 32 32 33 33 33 34 34
31 31 31 31 31 32 31 31 30 31 31 31 31 30 30 29 29 30 30 29 29 29 29 29 29 29 29 30 30 30 30 31 31 32 32 33 33 33 34 34 35 35 36
31 31 31 31 31 32 32 32 33 32 32 32 32 31 31 30 30 31 31 30 30 30 30 31 31 30 30 31 31 32 32 32 32 33 33 34 34 35 35 35 36 37 37
31 31 32 32 32 33 33 34 34 33 33 33 32 32 32 32 32 31 30 30 30 31 31 31 30 30 31 32 32 32 31 32 33 33 33 34 34 35 35 36 37 38 37
31 31 31 31 32 32 33 33 33 33 34 34 33 33 33 32 32 31 31 31 31 30 30 30 30 32 33 33 33 33 33 34 33 33 33 34 34 35 36 37 37 37 37
31 30 31 31 31 32 32 32 32 32 33 33 33 33 33 32 32 31 31 30 31 31 30 31 32 32 32 33 33 33 34 34 34 34 34 35 36 36 37 37 37 37 37
31 31 31 31 32 32 31 31 32 32 32 32 32 32 31 30 30 31 32 31 31 32 32 32 33 32 31 32 33 34 34 34 34 34 35 36 36 36 36 37 37 38 38
31 31 31 31 31 31 31 31 31 31 31 31 32 31 31 31 31 31 31 32 32 32 32 31 31 30 31 32 33 33 32 32 33 34 35 35 35 36 36 36 37 37 37
30 30 30 30 30 30 30 30 29 30 30 30 30 29 29 30 30 30 31 31 32 32 31 31 31 30 30 31 31 31 31 32 33 34 34 34 34 34 35 35 36 36 37
29 29 29 28 28 27 27 27 28 27 27 27 28 27 26 27 28 29 30 30 30 31 30 30 30 30 30 30 30 30 30 31 32 33 33 33 33 34 35 35 36 36 36
28 28 27 26 25 25 24 24 24 25 26 25 25 26 26 26 27 27 27 27 29 29 28 27 28 28 27 27 28 29 30 30 32 32 32 32 33 33 34 34 34 34 35
26 26 25 25 24 23 23 23 23 23 23 23 23 24 24 24 24 24 25 24 25 26 25 25 26 26 26 26 27 28 29 30 31 31 32 32 32 32 32 32 33 33 32
23 23 23 23 22 21 21 21 21 21 20 21 21 21 20 21 21 22 23 23 23 23 23 23 24 25 25 26 26 28 29 30 30 30 30 30 31 31 31 30 30 30 29
22 21 20 20 20 19 19 19 18 19 19 19 20 19 19 19 20 21 22 22 22 22 22 22 23 23 24 25 26 27 28 29 29 28 28 28 29 29 28 28 28 27 27
20 19 18 17 16 16 16 17 17 18 18 18 17 17 18 19 19 19 19 19 20 20 21 21 22 23 23 24 26 26 27 27 27 27 27 27 26 25 25 26 26 25 25
18 18 17 16 15 14 14 15 15 16 16 16 16 16 16 15 16 16 17 18 18 18 19 19 20 21 23 24 25 25 25 25 25 24 24 24 23 23 23 23 23 23 22
16 15 14 14 13 12 13 13 14 14 14 14 14 14 14 14 14 14 14 15 16 17 18 19 20 22 23 23 23 23 23 23 23 22 22 22 21 21 21 21 21 20 20
15 14 13 13 12 11 11 12 12 11 11 11 12 12 13 13 13 13 14 15 16 17 18 18 19 20 20 20 20 20 20 21 20 20 20 19 19 19 19 19 18 18 17
12 13 12 12 11 10 9 10 10 10 10 10 11 12 11 11 12 12 13 14 15 16 16 16 17 17 17 17 17 18 18 18 18 18 18 17 17 17 17 16 16 16 16
Wind_Direction
267 264 264 263 263 264 262 259 258 259 260 260 262 262 262 264 263 262 262 261 261 260 257 257 260 263 265 267 271 273 274 276 277 278 281 283 283 282 284 285 286 286 286
266 265 264 265 264 264 265 264 260 260 260 261 262 264 264 263 262 262 259 261 261 259 258 259 260 262 264 268 272 273 274 276 278 281 283 284 285 285 286 286 286 287 288
267 267 268 267 269 266 265 265 263 263 263 263 261 263 265 265 263 263 262 261 259 260 261 261 262 263 265 267 271 271 274 278 280 282 283 285 287 287 287 288 288 289 289
270 268 268 267 268 268 268 269 268 266 265 265 265 264 264 263 264 263 263 263 262 262 262 261 262 263 265 267 269 272 275 278 280 282 284 284 286 287 287 288 289 290 290
269 268 267 267 268 269 268 269 271 268 267 268 267 266 265 264 265 262 262 262 263 263 263 263 264 264 266 267 269 272 274 276 279 283 283 284 286 287 287 288 289 290 291
270 268 266 266 268 268 268 268 269 268 268 269 267 265 265 265 264 262 261 262 263 263 262 262 264 266 266 266 268 271 273 277 280 283 283 285 286 287 289 290 291 291 292
273 271 270 269 268 266 266 268 269 268 268 268 266 263 262 264 262 262 261 262 264 263 263 263 264 265 265 266 268 270 274 277 279 282 284 285 286 288 289 291 291 291 291
272 272 271 269 269 268 268 269 269 267 267 266 264 261 262 262 261 261 263 263 265 264 262 262 263 264 265 266 268 271 275 277 279 281 283 286 287 287 289 290 292 292 291
274 272 271 270 270 268 266 267 267 266 266 264 263 262 262 261 261 261 262 264 264 264 262 262 263 264 266 267 269 271 275 276 279 281 284 287 288 288 289 289 290 291 291
272 273 272 272 270 268 265 264 265 268 265 264 262 261 261 260 262 261 261 263 264 263 263 264 265 265 267 268 270 272 274 275 278 281 284 286 287 287 288 289 290 290 290
272 273 273 272 270 269 266 265 265 266 264 263 259 259 259 259 259 261 261 260 261 262 263 264 265 268 269 270 271 274 275 276 279 282 285 287 288 289 289 290 291 290 291
273 272 272 272 270 269 267 265 264 264 264 262 260 260 259 259 259 259 260 258 261 263 262 264 267 269 269 271 272 274 275 277 279 282 284 286 287 289 290 290 291 292 293
273 272 272 272 271 270 268 266 264 263 263 261 260 260 258 258 258 257 259 260 260 260 261 264 267 270 271 272 273 275 276 278 280 282 284 286 289 290 291 292 293 294 296
273 273 274 273 271 269 269 267 264 262 262 260 258 259 256 258 258 255 256 259 262 262 263 265 267 269 271 273 274 274 276 280 281 283 285 287 289 290 292 293 294 296 297
273 273 274 273 271 269 269 267 264 262 262 259 257 256 256 257 257 256 256 258 258 260 263 263 266 268 271 272 273 275 278 281 284 286 287 288 289 292 293 294 296 298 298
274 274 275 274 272 270 268 267 266 263 260 257 254 253 255 256 257 258 258 259 258 262 265 264 265 266 269 271 273 277 279 283 286 287 288 289 291 293 295 297 298 299 299
274 274 275 273 272 270 267 266 267 264 259 256 254 254 254 253 256 258 258 258 259 261 262 264 267 269 271 273 277 279 282 284 285 288 289 290 293 295 297 298 299 300 301
272 272 271 270 269 268 267 266 267 264 262 258 256 255 256 258 257 258 260 262 261 261 264 267 271 271 274 276 280 280 281 284 286 289 291 294 296 298 300 301 302 302 302
271 269 267 265 265 265 265 265 265 264 263 262 262 262 262 263 260 259 260 261 263 265 270 272 273 274 277 278 281 283 285 287 290 293 295 297 298 300 301 301 302 302 303
268 266 264 262 263 263 264 265 262 261 264 265 266 266 265 263 263 263 265 267 270 273 277 277 278 280 282 284 286 289 291 292 294 296 298 299 299 300 301 301 302 302 303
265 264 264 262 261 261 263 262 261 264 267 268 265 265 266 267 267 268 271 271 273 275 278 280 282 285 288 290 291 293 294 296 297 299 300 301 301 302 301 302 302 303 303
262 261 264 264 261 259 259 260 262 264 264 266 266 266 268 267 265 268 269 271 274 277 280 282 285 289 292 293 295 297 299 300 300 301 301 301 301 301 301 303 304 304 304
257 256 257 258 259 261 264 263 264 264 266 263 265 267 269 268 266 270 274 277 279 281 284 288 290 292 294 296 298 299 300 301 302 302 301 302 301 300 302 304 304 305 305
251 252 251 255 255 259 264 266 264 266 266 266 266 269 271 272 274 279 282 284 286 289 291 292 293 295 298 300 300 300 300 301 301 301 301 302 302 303 304 306 306 307 309
244 244 246 250 253 258 263 267 266 267 261 262 261 265 271 274 278 283 285 288 291 293 295 295 297 297 298 300 301 301 300 300 301 301 302 303 304 304 306 308 309 311 313
238 238 243 247 250 255 265 262 266 265 266 266 264 268 275 277 281 283 286 289 292 295 296 296 297 298 300 302 301 301 301 302 303 303 305 305 306 306 308 309 312 314 316
Height
5870 5871 5871 5871 5871 5872 5872 5872 5874 5875 5876 5877 5879 5880 5880 5880 5880 5881 5882 5883 5883 5884 5885 5885 5886 5887 5887 5887 5888 5888 5888 5888 5888 5888 5888 5887 5887 5887 5886 5886 5885 5885 5884
5864 5865 5866 5866 5866 5868 5868 5867 5869 5871 5872 5873 5874 5875 5876 5876 5877 5877 5878 5880 5880 5881 5881 5882 5883 5883 5884 5884 5884 5884 5885 5885 5884 5884 5884 5884 5884 5883 5883 5882 5881 5881 5880
5859 5861 5861 5862 5861 5863 5864 5864 5865 5866 5867 5868 5869 5870 5871 5872 5873 5873 5875 5875 5876 5877 5878 5878 5879 5880 5880 5880 5881 5881 5881 5881 5881 5881 5880 5880 5879 5879 5878 5878 5877 5876 5875
5854 5856 5857 5857 5857 5858 5859 5860 5861 5861 5862 5863 5864 5865 5866 5867 5867 5869 5870 5871 5871 5873 5873 5874 5875 5875 5876 5876 5877 5877 5877 5877 5877 5876 5876 5875 5875 5874 5874 5873 5872 5871 5869
5848 5850 5851 5851 5852 5853 5854 5855 5856 5856 5857 5858 5858 5859 5861 5861 5862 5863 5864 5866 5866 5868 5868 5869 5870 5871 5871 5872 5872 5872 5872 5872 5872 5871 5871 5870 5870 5869 5868 5867 5866 5865 5863
5842 5844 5845 5845 5846 5848 5849 5849 5850 5851 5851 5852 5853 5854 5855 5855 5856 5858 5859 5860 5861 5862 5863 5864 5865 5866 5866 5867 5867 5867 5867 5867 5867 5866 5865 5865 5864 5863 5862 5861 5859 5858 5856
5836 5837 5838 5838 5839 5841 5842 5842 5843 5844 5845 5845 5846 5847 5848 5849 5850 5852 5853 5854 5855 5856 5858 5859 5859 5860 5861 5861 5861 5861 5861 5861 5861 5860 5859 5859 5858 5857 5855 5854 5852 5851 5849
5829 5830 5831 5832 5833 5834 5835 5835 5836 5837 5838 5838 5839 5840 5842 5844 5844 5846 5847 5848 5849 5850 5851 5852 5853 5854 5855 5855 5856 5856 5855 5855 5854 5854 5853 5852 5851 5850 5848 5847 5845 5843 5842
5823 5824 5824 5825 5826 5826 5827 5828 5829 5830 5830 5831 5832 5833 5835 5837 5838 5840 5840 5842 5843 5843 5844 5846 5847 5848 5848 5849 5849 5849 5849 5848 5848 5847 5846 5845 5844 5843 5841 5840 5838 5836 5834
5816 5817 5817 5818 5819 5819 5820 5821 5822 5823 5823 5824 5825 5826 5828 5830 5831 5833 5834 5835 5836 5837 5838 5839 5840 5841 5842 5842 5842 5842 5842 5842 5841 5840 5839 5838 5837 5835 5834 5832 5830 5828 5826
5809 5810 5810 5811 5811 5811 5812 5813 5814 5815 5816 5817 5818 5819 5820 5822 5824 5826 5827 5828 5830 5831 5832 5832 5833 5834 5835 5835 5835 5835 5835 5835 5834 5833 5832 5831 5829 5828 5826 5824 5822 5820 5817
5802 5802 5802 5803 5803 5804 5805 5805 5807 5808 5809 5810 5811 5812 5814 5815 5816 5818 5820 5821 5822 5824 5825 5825 5827 5827 5828 5828 5828 5828 5828 5827 5827 5826 5825 5823 5822 5820 5818 5816 5814 5811 5809
5794 5795 5795 5795 5795 5796 5797 5797 5798 5800 5801 5802 5804 5805 5807 5807 5809 5811 5812 5814 5815 5817 5817 5818 5819 5820 5820 5821 5821 5821 5820 5820 5819 5818 5817 5815 5814 5812 5810 5808 5805 5803 5800
5787 5787 5787 5787 5788 5788 5789 5790 5791 5792 5793 5795 5796 5797 5799 5801 5802 5804 5806 5807 5808 5809 5810 5811 5812 5812 5813 5813 5813 5813 5813 5812 5811 5810 5809 5807 5806 5803 5801 5799 5796 5794 5791
5779 5779 5779 5779 5780 5780 5781 5782 5783 5784 5786 5787 5789 5790 5792 5793 5795 5796 5798 5800 5802 5802 5803 5803 5804 5805 5805 5805 5805 5805 5804 5804 5803 5802 5800 5799 5797 5795 5793 5790 5788 5785 5782
5771 5771 5771 5772 5772 5773 5773 5774 5775 5777 5778 5780 5781 5783 5785 5786 5788 5789 5790 5792 5793 5794 5795 5796 5796 5797 5798 5798 5798 5797 5797 5796 5795 5794 5792 5791 5789 5787 5784 5781 5779 5776 5773
5764 5764 5764 5764 5765 5765 5766 5768 5769 5770 5771 5773 5774 5776 5777 5779 5781 5782 5783 5785 5786 5787 5788 5788 5789 5790 5790 5790 5790 5789 5789 5788 5787 5786 5784 5782 5780 5778 5775 5773 5770 5767 5763
5756 5757 5757 5757 5758 5759 5760 5761 5763 5764 5766 5767 5768 5770 5771 5773 5774 5776 5777 5778 5779 5780 5781 5782 5782 5783 5783 5783 5783 5782 5781 5780 5779 5777 5776 5774 5772 5769 5767 5764 5761 5758 5755
5749 5750 5750 5751 5752 5753 5754 5756 5757 5758 5760 5761 5763 5764 5766 5767 5768 5770 5771 5772 5773 5774 5775 5776 5776 5776 5776 5776 5776 5775 5774 5773 5771 5770 5768 5765 5763 5761 5758 5756 5753 5750 5746
5743 5743 5744 5745 5747 5748 5749 5750 5752 5753 5755 5756 5758 5759 5760 5762 5763 5764 5765 5766 5767 5768 5769 5770 5770 5770 5770 5769 5769 5768 5767 5765 5764 5762 5760 5758 5755 5753 5750 5748 5745 5742 5739
5737 5738 5739 5740 5741 5743 5744 5745 5747 5748 5750 5751 5753 5754 5755 5757 5758 5759 5761 5762 5762 5763 5764 5764 5764 5764 5763 5763 5762 5761 5760 5758 5756 5754 5752 5750 5748 5746 5743 5740 5737 5735 5732
5732 5733 5735 5736 5737 5738 5740 5741 5743 5744 5745 5747 5748 5749 5751 5752 5753 5754 5755 5756 5757 5758 5758 5759 5759 5758 5757 5757 5755 5754 5752 5751 5749 5747 5745 5743 5741 5739 5736 5733 5731 5728 5725
5727 5729 5730 5732 5733 5734 5736 5737 5739 5740 5741 5743 5744 5745 5747 5748 5749 5750 5750 5751 5752 5753 5753 5753 5753 5752 5751 5750 5749 5747 5745 5744 5742 5740 5738 5736 5734 5732 5730 5727 5725 5722 5720
5723 5725 5727 5729 5730 5731 5733 5734 5736 5737 5738 5739 5741 5742 5743 5744 5745 5746 5746 5747 5747 5748 5748 5747 5747 5746 5745 5744 5743 5741 5739 5737 5736 5734 5732 5731 5729 5727 5725 5722 5720 5717 5715
5720 5722 5723 5725 5727 5729 5730 5731 5733 5734 5735 5736 5738 5739 5740 5741 5741 5742 5742 5743 5743 5743 5743 5742 5742 5741 5739 5738 5736 5735 5733 5732 5730 5729 5727 5725 5723 5721 5719 5717 5715 5713 5710
5717 5719 5721 5723 5725 5727 5728 5729 5730 5732 5733 5734 5735 5736 5737 5737 5738 5738 5738 5739 5739 5739 5738 5737 5737 5736 5734 5733 5731 5730 5729 5727 5725 5724 5722 5720 5719 5717 5715 5713 5711 5709 5707